GEESAT 3-10

导读 | 星芒AI

GEESAT 3-10 是一颗由韩国开发的地球观测卫星,主要用于环境监测和灾害预警。该卫星搭载高分辨率光学传感器,能够获取高精度的地表图像,支持农业、城市规划和自然资源管理等多个领域。作为韩国地球观测卫星系列的一部分,GEESAT 3-10 提升了国家在遥感技术方面的自主能力,并为全球气候变化研究提供了重要数据支持。

基本信息
目录编号:
61020
目录名称:
GEESAT 3-10
国际标识:
2024-159K
轨道中心:
EARTH
卫星名称:
GEESAT 3-10
卫星全名:
GEESAT 3-10
卫星状态:
在轨 (已飞行419 天)
发射日期:
2024-09-05 UTC
国别 :
中国 (CN)
星等 :
--
轨道信息
数据来源 国际轨道数据
星历时间: 2025-10-28T22:00:09+0800
16小时前
查看轨道信息
半长轴: 6978.183km
偏心率: 0.0013134
轨道倾角: 49.998°
近地点辐角 354.962°
升交点赤经 77.750°
平近点角 5.119°
近地点: 590.882km
远地点: 609.214km
周期: 96.688分钟
每日圈数: 14.893244
详细信息
使用方式:
暂无
2D轨道图
3D轨道图
轨道高度分析图
轨道倾角分析图
轨道综合分析图
查看轨道综合分析图